Location: Niagara
(43.2500°N, 79.0670°W)
Time: 02:54:09
(UTC-04:00)

Vanguard 3 - Visible Passes

Search period start: 21 June 2018 00:00
Search period end: 01 July 2018 00:00
Orbit: 508 x 3264 km, 33.3° (Epoch: 20 June)

Date Brightness Start Highest point End Pass type
(mag) Time Alt. Az. Time Alt. Az. Time Alt. Az.
21 Jun 8.7 03:37:24 18° S 03:39:30 21° SSE 03:45:10 10° ESE visible
22 Jun 8.6 04:32:13 12° SW 04:36:48 34° SSE 04:44:54 10° ESE visible
23 Jun 8.5 03:22:29 20° SSE 03:23:33 21° SSE 03:28:40 10° ESE visible
24 Jun 8.4 04:17:19 16° SW 04:20:54 33° SSE 04:28:06 10° ESE visible
25 Jun 8.4 03:07:37 21° SSE 03:07:41 21° SSE 03:12:16 10° ESE visible
26 Jun 8.1 04:02:31 20° SSW 04:05:05 31° SSE 04:11:26 10° ESE visible
27 Jun 8.4 02:52:52 20° SE 02:52:52 20° SE 02:55:59 10° ESE visible
27 Jun 8.3 04:58:03 10° WSW 05:02:47 34° S 05:10:16 10° ESE visible
28 Jun 7.8 03:47:49 24° SSW 03:49:19 29° S 03:54:51 10° ESE visible
29 Jun 8.7 02:38:13 16° SE 02:38:13 16° SE 02:39:49 10° ESE visible
29 Jun 8.3 04:42:49 10° WSW 04:47:00 29° S 04:53:23 10° SE visible
30 Jun 7.8 03:33:17 26° S 03:33:35 26° S 03:38:23 10° ESE visible
